TimeEDT,TemperatureF,Dew PointF,Humidity,Sea Level PressureIn,VisibilityMPH,Wind Direction,Wind SpeedMPH,Gust SpeedMPH,PrecipitationIn,Events,Conditions,WindDirDegrees,DateUTC
12:04 AM,56.5,49.1,76,30.05,10.0,South,11.5,21.9,N/A,,Scattered Clouds,180,2013-03-12 04:04:00
12:24 AM,56.3,49.1,77,30.05,10.0,South,15.0,19.6,N/A,,Clear,190,2013-03-12 04:24:00
12:44 AM,56.3,49.1,77,30.03,10.0,South,17.3,23.0,N/A,,Scattered Clouds,180,2013-03-12 04:44:00
1:04 AM,55.9,49.5,79,30.00,10.0,South,13.8,21.9,N/A,,Scattered Clouds,170,2013-03-12 05:04:00
1:24 AM,55.8,49.6,80,30.00,10.0,South,13.8,17.3,N/A,,Clear,180,2013-03-12 05:24:00
1:44 AM,56.3,50.4,80,30.00,10.0,South,15.0,23.0,N/A,,Clear,180,2013-03-12 05:44:00
2:04 AM,56.7,50.9,81,29.98,10.0,South,16.1,21.9,N/A,,Clear,180,2013-03-12 06:04:00
2:24 AM,57.4,50.9,79,29.99,10.0,South,16.1,-,N/A,,Scattered Clouds,190,2013-03-12 06:24:00
2:44 AM,57.4,50.9,79,29.98,10.0,South,19.6,26.5,N/A,,Mostly Cloudy,190,2013-03-12 06:44:00
3:04 AM,57.2,51.3,81,29.97,10.0,South,17.3,27.6,N/A,,Scattered Clouds,190,2013-03-12 07:04:00
3:24 AM,56.1,52.0,86,29.96,10.0,South,17.3,26.5,N/A,Rain,Light Rain,190,2013-03-12 07:24:00
3:44 AM,55.4,53.1,92,29.95,7.0,South,17.3,24.2,0.01,Rain,Light Rain,190,2013-03-12 07:44:00
4:04 AM,55.2,53.1,92,29.94,10.0,South,11.5,-,N/A,,Drizzle,190,2013-03-12 08:04:00
4:24 AM,55.6,53.1,91,29.94,10.0,South,12.7,17.3,N/A,,Light Drizzle,190,2013-03-12 08:24:00
4:44 AM,56.3,52.7,88,29.92,10.0,South,15.0,21.9,N/A,,Light Drizzle,180,2013-03-12 08:44:00
5:05 AM,56.7,52.7,87,29.93,10.0,SSW,12.7,18.4,N/A,,Scattered Clouds,200,2013-03-12 09:05:00
5:25 AM,56.5,53.8,91,29.93,10.0,SSW,16.1,21.9,N/A,Rain,Light Rain,200,2013-03-12 09:25:00
5:45 AM,55.8,54.1,94,29.93,7.0,South,12.7,23.0,0.01,Rain,Rain,190,2013-03-12 09:45:00
5:50 AM,55.4,53.6,94,29.93,7.0,South,13.8,23.0,N/A,Rain,Light Rain,180,2013-03-12 09:50:00
6:05 AM,55.4,54.9,98,29.92,7.0,South,18.4,24.2,0.01,Rain,Rain,180,2013-03-12 10:05:00
6:25 AM,54.9,54.9,100,29.92,7.0,South,16.1,20.7,0.03,Rain,Light Rain,190,2013-03-12 10:25:00
6:45 AM,54.7,54.7,100,29.92,7.0,South,15.0,23.0,0.05,Rain,Light Rain,190,2013-03-12 10:45:00
6:50 AM,55.4,55.4,100,29.91,7.0,South,17.3,24.2,N/A,Rain,Light Rain,170,2013-03-12 10:50:00
7:05 AM,54.7,54.7,100,29.91,7.0,South,16.1,-,N/A,Rain,Rain,180,2013-03-12 11:05:00
7:25 AM,55.0,55.0,100,29.90,7.0,South,18.4,27.6,0.03,Rain,Rain,190,2013-03-12 11:25:00
7:41 AM,55.4,55.4,100,29.89,5.0,South,18.4,25.3,0.05,Rain,Light Rain,180,2013-03-12 11:41:00
7:50 AM,55.4,55.4,100,29.88,7.0,South,16.1,24.2,N/A,Rain,Light Rain,170,2013-03-12 11:50:00
8:53 AM,55.4,55.4,100,29.86,7.0,South,19.6,25.3,N/A,Rain,Light Rain,180,2013-03-12 12:53:00
9:52 AM,55.4,55.4,100,29.85,5.0,South,17.3,27.6,N/A,Rain,Light Rain,190,2013-03-12 13:52:00
10:50 AM,55.4,55.4,100,29.82,5.0,South,17.3,29.9,N/A,Rain,Rain,170,2013-03-12 14:50:00
11:53 AM,59.0,57.2,94,29.77,3.0,South,24.2,36.8,N/A,Rain,Rain,180,2013-03-12 15:53:00
12:05 PM,59.0,57.2,94,29.77,2.0,South,20.7,32.2,N/A,Rain,Rain,190,2013-03-12 16:05:00
12:25 PM,59.0,57.2,94,29.76,7.0,South,20.7,31.1,N/A,Rain,Light Rain,190,2013-03-12 16:25:00
1:35 PM,57.2,55.4,94,29.77,1.0,West,16.1,29.9,N/A,Rain,Rain,260,2013-03-12 17:35:00
1:53 PM,57.2,55.4,94,29.77,6.0,WSW,15.0,20.7,N/A,Rain,Light Rain,240,2013-03-12 17:53:00
2:53 PM,55.4,51.8,88,29.79,10.0,NW,10.4,17.3,N/A,,Overcast,310,2013-03-12 18:53:00
3:15 PM,53.6,51.8,94,29.78,7.0,NW,6.9,-,N/A,Rain,Light Rain,310,2013-03-12 19:15:00
3:53 PM,55.4,55.4,100,29.79,10.0,NW,8.1,-,N/A,,Overcast,320,2013-03-12 19:53:00
4:53 PM,55.4,55.4,100,29.80,10.0,NNW,9.2,-,N/A,,Overcast,330,2013-03-12 20:53:00
5:53 PM,53.6,48.2,82,29.82,10.0,NNW,11.5,18.4,N/A,,Overcast,340,2013-03-12 21:53:00
6:53 PM,53.6,46.4,77,29.85,10.0,North,9.2,-,N/A,,Scattered Clouds,350,2013-03-12 22:53:00
7:53 PM,50.0,41.0,71,29.88,10.0,NNW,11.5,-,N/A,,Clear,340,2013-03-12 23:53:00
8:53 PM,46.4,37.4,71,29.92,10.0,NNW,13.8,19.6,N/A,,Clear,340,2013-03-13 00:53:00
10:47 PM,43.7,35.8,74,29.96,10.0,North,8.1,-,N/A,,Clear,350,2013-03-13 02:47:00
11:07 PM,42.8,35.2,75,29.96,10.0,North,4.6,-,N/A,,Clear,360,2013-03-13 03:07:00
11:27 PM,42.8,35.1,74,29.96,10.0,North,8.1,-,N/A,,Clear,350,2013-03-13 03:27:00
11:47 PM,42.3,34.7,75,29.96,10.0,North,9.2,-,N/A,,Clear,350,2013-03-13 03:47:00